Terminal Aerodrome Forecast
Issued by NWS Buffalo, NY

Home | Current Version | Previous Version | Text Only | Print | Product List | Glossary On
Versions: 1 2 3 4 5 6 7 8 9 10 11 12 13 14 15 16 17 18 19 20 21 22 23 24
000
FTUS41 KBUF 210200 AAA
TAFART
TAF AMD
KART 210230Z 2102/2124 VRB04KT P6SM BKN130
     FM210600 21005KT P6SM BKN130
     FM211400 21009KT P6SM BKN130
     FM211600 23012KT P6SM BKN100=

USA.gov is the U.S. government's official web portal to all federal, state and local government web resources and services.